Faribault, MN

10:01 AM CST on December 16, 2017 (GMT -0600)
Faribault Municipal

Weather History for KFBL - January, 2014

Change the Weather History Date:

Sunday, January 12, 2014

  Actual Average Record
Temperature  
Mean Temperature 33 °F -  
Max Temperature 42 °F 21 °F 46 °F (1961)
Min Temperature 24 °F 3 °F -30 °F (1977)
Degree Days  
Heating Degree Days 32    
Moisture  
Dew Point 25 °F    
Average Humidity 66    
Maximum Humidity 80    
Minimum Humidity 53    
Precipitation  
Precipitation 0.00 in - - ()
Sea Level Pressure  
Sea Level Pressure 29.47 in    
Wind  
Wind Speed 8 mph (South)    
Max Wind Speed 20 mph    
Max Gust Speed 26 mph    
Visibility 10 miles    
Events      
Averages and records for this station are not official NWS values.
T = Trace of Precipitation, MM = Missing Value Source: NWS Daily Summary

Daily Weather History Graph

Daily Weather History Graph

Search for Another Location

Airport or City:

Trip Planner

Search our weather history database for the weather conditions in past years. The results will help you decide how hot, cold, wet, or windy it might be!

Date:

Astronomy

Jan. 12, 2014 Rise Set
Actual Time 7:47 AM CST 4:56 PM CST
Civil Twilight 7:14 AM CST 5:28 PM CST
Nautical Twilight 6:38 AM CST 6:05 PM CST
Astronomical Twilight 6:03 AM CST 6:39 PM CST
Moon 2:25 PM CST (1/12) 4:45 AM CST (1/12)
Length of Visible Light 10h 14m
Length of Day
9h 09m
Waxing Gibbous, 90% of the Moon is Illuminated
Jan 12
Waxing Gibbous
Jan 15
Full
Jan 23
Last Quarter
Jan 30
New
Feb 6
First Quarter

Hourly Weather History & Observations

Time (CST) Temp. Windchill Dew Point Humidity Pressure Visibility Wind Dir Wind Speed Gust Speed Precip Events Conditions
12:01 AM 24.8 °F 16.1 °F 17.6 °F 74% 29.64 in 10.0 mi South 8.1 mph - N/A   Clear
12:21 AM 24.8 °F 17.9 °F 17.6 °F 74% 29.63 in 10.0 mi South 5.8 mph - N/A   Clear
12:41 AM 24.8 °F 16.9 °F 19.4 °F 80% 29.63 in 10.0 mi South 6.9 mph - N/A   Clear
1:01 AM 24.8 °F 19.1 °F 19.4 °F 80% 29.62 in 10.0 mi South 4.6 mph - N/A   Clear
1:21 AM 24.8 °F 20.5 °F 19.4 °F 80% 29.61 in 10.0 mi SSE 3.5 mph - N/A   Clear
1:41 AM 24.8 °F 16.9 °F 17.6 °F 74% 29.60 in 10.0 mi SSE 6.9 mph - N/A   Clear
2:01 AM 26.6 °F 18.2 °F 19.4 °F 74% 29.60 in 10.0 mi South 8.1 mph - N/A   Clear
2:21 AM 26.6 °F 18.2 °F 19.4 °F 74% 29.59 in 10.0 mi South 8.1 mph - N/A   Scattered Clouds
2:41 AM 26.6 °F 17.5 °F 19.4 °F 74% 29.57 in 10.0 mi South 9.2 mph - N/A   Scattered Clouds
3:01 AM 26.6 °F 16.2 °F 19.4 °F 74% 29.56 in 10.0 mi South 11.5 mph - N/A   Scattered Clouds
3:21 AM 28.4 °F 18.0 °F 19.4 °F 69% 29.53 in 10.0 mi South 12.7 mph - N/A   Scattered Clouds
3:41 AM 28.4 °F 19.7 °F 21.2 °F 74% 29.52 in 10.0 mi South 9.2 mph - N/A   Clear
4:01 AM 30.2 °F 21.3 °F 21.2 °F 69% 29.50 in 10.0 mi South 10.4 mph 17.3 mph N/A   Scattered Clouds
4:21 AM 32.0 °F 21.6 °F 21.2 °F 64% 29.47 in 10.0 mi SSE 15.0 mph - N/A   Scattered Clouds
4:41 AM 33.8 °F 23.5 °F 21.2 °F 60% 29.46 in 10.0 mi SSE 16.1 mph 20.7 mph N/A   Mostly Cloudy
5:01 AM 35.6 °F 26.2 °F 23.0 °F 60% 29.44 in 10.0 mi SSE 15.0 mph 24.2 mph N/A   Mostly Cloudy
5:21 AM 37.4 °F 28.2 °F 24.8 °F 60% 29.42 in 10.0 mi SSE 16.1 mph 23.0 mph N/A   Overcast
5:41 AM 37.4 °F 28.9 °F 24.8 °F 60% 29.42 in 10.0 mi South 13.8 mph 25.3 mph N/A   Scattered Clouds
6:01 AM 35.6 °F 24.8 °F 23.0 °F 60% 29.41 in 10.0 mi South 19.6 mph 26.5 mph N/A   Clear
6:21 AM 35.6 °F 26.6 °F 23.0 °F 60% 29.42 in 10.0 mi South 13.8 mph 19.6 mph N/A   Clear
6:41 AM 33.8 °F 23.9 °F 23.0 °F 65% 29.37 in 10.0 mi South 15.0 mph 23.0 mph N/A   Clear
7:01 AM 33.8 °F 24.3 °F 23.0 °F 65% 29.39 in 10.0 mi South 13.8 mph 23.0 mph N/A   Clear
7:21 AM 33.8 °F 25.3 °F 23.0 °F 65% 29.40 in 10.0 mi South 11.5 mph 17.3 mph N/A   Clear
7:41 AM 33.8 °F 25.8 °F 23.0 °F 65% 29.39 in 10.0 mi South 10.4 mph - N/A   Clear
8:01 AM 33.8 °F 25.8 °F 23.0 °F 65% 29.39 in 10.0 mi SSE 10.4 mph 16.1 mph N/A   Clear
8:21 AM 33.8 °F 28.6 °F 23.0 °F 65% 29.39 in 10.0 mi SSE 5.8 mph - N/A   Clear
8:41 AM 35.6 °F 28.6 °F 24.8 °F 65% 29.39 in 10.0 mi South 9.2 mph - N/A   Clear
9:01 AM 39.2 °F 32.0 °F 24.8 °F 56% 29.38 in 10.0 mi South 11.5 mph 17.3 mph N/A   Clear
9:21 AM 39.2 °F 32.5 °F 24.8 °F 56% 29.39 in 10.0 mi South 10.4 mph - N/A   Clear
9:41 AM 39.2 °F 31.6 °F 26.6 °F 61% 29.40 in 10.0 mi SSW 12.7 mph 17.3 mph N/A   Clear
10:01 AM 41.0 °F 34.3 °F 26.6 °F 57% 29.39 in 10.0 mi South 11.5 mph 17.3 mph N/A   Clear
10:21 AM 41.0 °F 33.9 °F 26.6 °F 57% 29.40 in 10.0 mi SSW 12.7 mph 18.4 mph N/A   Clear
10:41 AM 41.0 °F 34.7 °F 26.6 °F 57% 29.41 in 10.0 mi SSW 10.4 mph - N/A   Clear
11:01 AM 41.0 °F 35.2 °F 26.6 °F 57% 29.41 in 10.0 mi SSW 9.2 mph 16.1 mph N/A   Clear
11:21 AM 41.0 °F 35.2 °F 26.6 °F 57% 29.40 in 10.0 mi SSW 9.2 mph - N/A   Clear
11:41 AM 42.8 °F 37.0 °F 26.6 °F 53% 29.38 in 10.0 mi SSW 10.4 mph - N/A   Clear
12:01 PM 41.0 °F 34.3 °F 26.6 °F 57% 29.39 in 10.0 mi SSW 11.5 mph 16.1 mph N/A   Clear
12:21 PM 41.0 °F 34.7 °F 26.6 °F 57% 29.38 in 10.0 mi SSW 10.4 mph - N/A   Clear
12:41 PM 41.0 °F 35.2 °F 28.4 °F 61% 29.39 in 10.0 mi SSW 9.2 mph - N/A   Clear
1:01 PM 41.0 °F 35.2 °F 28.4 °F 61% 29.38 in 10.0 mi SSW 9.2 mph - N/A   Clear
1:41 PM 41.0 °F 36.4 °F 28.4 °F 61% 29.39 in 10.0 mi SSW 6.9 mph - N/A   Clear
2:01 PM 41.0 °F 37.1 °F 28.4 °F 61% 29.41 in 10.0 mi SSW 5.8 mph - N/A   Clear
2:21 PM 41.0 °F 37.1 °F 28.4 °F 61% 29.42 in 10.0 mi SSW 5.8 mph - N/A   Clear
2:41 PM 42.8 °F 40.1 °F 28.4 °F 57% 29.41 in 10.0 mi South 4.6 mph - N/A   Clear
3:01 PM 41.0 °F 39.0 °F 28.4 °F 61% 29.41 in 10.0 mi SSE 3.5 mph - N/A   Clear
3:21 PM 41.0 °F 38.0 °F 28.4 °F 61% 29.41 in 10.0 mi South 4.6 mph - N/A   Clear
3:41 PM 39.2 °F 34.2 °F 28.4 °F 65% 29.42 in 10.0 mi South 6.9 mph - N/A   Clear
4:01 PM 39.2 °F 34.2 °F 28.4 °F 65% 29.45 in 10.0 mi SSW 6.9 mph - N/A   Clear
4:21 PM 39.2 °F 37.0 °F 28.4 °F 65% 29.45 in 10.0 mi SSW 3.5 mph - N/A   Clear
4:41 PM 39.2 °F 35.9 °F 28.4 °F 65% 29.46 in 10.0 mi South 4.6 mph - N/A   Clear
5:01 PM 39.2 °F 35.0 °F 28.4 °F 65% 29.47 in 10.0 mi South 5.8 mph - N/A   Clear
5:21 PM 39.2 °F 35.0 °F 28.4 °F 65% 29.48 in 10.0 mi South 5.8 mph - N/A   Clear
5:41 PM 37.4 °F 34.9 °F 28.4 °F 70% 29.48 in 10.0 mi SSW 3.5 mph - N/A   Clear
6:01 PM 37.4 °F 34.9 °F 28.4 °F 70% 29.48 in 10.0 mi South 3.5 mph - N/A   Clear
6:21 PM 37.4 °F 33.8 °F 28.4 °F 70% 29.47 in 10.0 mi South 4.6 mph - N/A   Clear
6:41 PM 37.4 °F 33.8 °F 28.4 °F 70% 29.48 in 10.0 mi South 4.6 mph - N/A   Clear
7:01 PM 37.4 °F 32.8 °F 30.2 °F 75% 29.50 in 10.0 mi SSW 5.8 mph - N/A   Clear
7:21 PM 37.4 °F 33.8 °F 28.4 °F 70% 29.50 in 10.0 mi SSW 4.6 mph - N/A   Clear
7:41 PM 37.4 °F 33.8 °F 28.4 °F 70% 29.51 in 10.0 mi SSW 4.6 mph - N/A   Clear
8:01 PM 37.4 °F 32.8 °F 28.4 °F 70% 29.51 in 10.0 mi SSW 5.8 mph - N/A   Clear
8:21 PM 37.4 °F 33.8 °F 28.4 °F 70% 29.51 in 10.0 mi SSW 4.6 mph - N/A   Clear
8:41 PM 37.4 °F 33.8 °F 28.4 °F 70% 29.52 in 10.0 mi SW 4.6 mph - N/A   Clear
9:01 PM 37.4 °F 33.8 °F 28.4 °F 70% 29.52 in 10.0 mi SW 4.6 mph - N/A   Clear
9:21 PM 37.4 °F 34.9 °F 28.4 °F 70% 29.52 in 10.0 mi SSW 3.5 mph - N/A   Clear
9:41 PM 37.4 °F 33.8 °F 28.4 °F 70% 29.53 in 10.0 mi SW 4.6 mph - N/A   Clear
10:01 PM 37.4 °F 32.8 °F 28.4 °F 70% 29.53 in 10.0 mi SW 5.8 mph - N/A   Clear
10:21 PM 37.4 °F 34.9 °F 28.4 °F 70% 29.52 in 10.0 mi SW 3.5 mph - N/A   Clear
10:41 PM 37.4 °F 33.8 °F 28.4 °F 70% 29.52 in 10.0 mi SSW 4.6 mph - N/A   Clear
11:01 PM 37.4 °F 33.8 °F 28.4 °F 70% 29.51 in 10.0 mi SSW 4.6 mph - N/A   Clear
11:21 PM 37.4 °F 33.8 °F 28.4 °F 70% 29.52 in 10.0 mi SSW 4.6 mph - N/A   Clear
11:41 PM 37.4 °F - 28.4 °F 70% 29.50 in 10.0 mi SSW 2.3 mph - N/A   Clear